AFR1032 LFPG-LGAV

Flight info

Callsign AFR1032
Flight time 2h 52m
Altitude 35000
Route LANVI DCT BEGAR DCT TRA DCT GAMSA DCT GEDSO DCT VEKEN DCT DARZA DCT PINDO DCT PIKOS UL607 XORKI
Aircraft A320/M-SDE3FGHIRWY/LB1

Departure

Time 2026-05-08 16:00
Airport Charles de Gaulle International Airport (LFPG)

Arrival

Time 2026-05-08 18:52
Airport Athens Eleftherios Venizelos International Airport (LGAV)
Time Latitude Longitude Altitude Speed Heading
2026-05-08 15:32 49.00713 2.57399 355 ft 0 kts 184°
2026-05-08 15:44 49.00724 2.57400 361 ft 4 kts 186°
2026-05-08 15:44 49.00749 2.57409 358 ft 4 kts 213°
2026-05-08 15:44 49.00763 2.57434 354 ft 2 kts 265°
2026-05-08 15:45 49.00763 2.57436 357 ft 0 kts 265°
2026-05-08 15:48 49.00757 2.57348 358 ft 12 kts 266°
2026-05-08 15:48 49.00729 2.57238 354 ft 11 kts 210°
2026-05-08 15:48 49.00682 2.57160 361 ft 11 kts 252°
2026-05-08 15:49 49.00665 2.57055 354 ft 9 kts 256°
2026-05-08 15:49 49.00655 2.56962 354 ft 11 kts 265°
2026-05-08 15:49 49.00646 2.56814 354 ft 17 kts 265°
2026-05-08 15:49 49.00636 2.56621 362 ft 19 kts 265°
2026-05-08 15:50 49.00626 2.56421 357 ft 19 kts 266°
2026-05-08 15:50 49.00613 2.56218 354 ft 19 kts 264°
2026-05-08 15:50 49.00584 2.56019 356 ft 19 kts 248°
2026-05-08 15:50 49.00567 2.55814 361 ft 20 kts 265°
2026-05-08 15:51 49.00556 2.55603 354 ft 20 kts 265°
2026-05-08 15:51 49.00544 2.55386 358 ft 20 kts 277°
2026-05-08 15:51 49.00625 2.55251 354 ft 17 kts 344°
2026-05-08 15:51 49.00744 2.55204 359 ft 18 kts 345°
2026-05-08 15:52 49.00865 2.55147 357 ft 19 kts 345°
2026-05-08 15:52 49.00992 2.55092 354 ft 19 kts 344°
2026-05-08 15:52 49.01124 2.55035 361 ft 20 kts 344°
2026-05-08 15:52 49.01259 2.54976 358 ft 21 kts 345°
2026-05-08 15:53 49.01399 2.54918 361 ft 21 kts 345°
2026-05-08 15:53 49.01545 2.54890 361 ft 21 kts 357°
2026-05-08 15:53 49.01693 2.54877 354 ft 21 kts 355°
2026-05-08 15:53 49.01828 2.54859 356 ft 19 kts 359°
2026-05-08 15:54 49.01955 2.54844 354 ft 16 kts
2026-05-08 15:54 49.02027 2.54773 362 ft 15 kts 267°
2026-05-08 15:54 49.02017 2.54621 361 ft 16 kts 266°
2026-05-08 15:54 49.02006 2.54424 359 ft 20 kts 264°
2026-05-08 15:55 49.01994 2.54216 354 ft 17 kts 253°
2026-05-08 15:55 49.01891 2.53939 354 ft 14 kts 265°
2026-05-08 15:55 49.01883 2.53803 361 ft 12 kts 265°
2026-05-08 15:56 49.01875 2.53657 361 ft 17 kts 264°
2026-05-08 15:56 49.01864 2.53481 354 ft 17 kts 265°
2026-05-08 15:56 49.01852 2.53302 355 ft 19 kts 268°
2026-05-08 15:56 49.01843 2.53085 356 ft 21 kts 267°
2026-05-08 15:57 49.01832 2.52858 361 ft 22 kts 265°
2026-05-08 15:57 49.01818 2.52624 362 ft 22 kts 265°
2026-05-08 15:57 49.01804 2.52387 359 ft 23 kts 263°
2026-05-08 15:57 49.01795 2.52176 361 ft 14 kts 287°
2026-05-08 15:58 49.01874 2.52123 354 ft 13 kts 356°
2026-05-08 15:58 49.01969 2.52113 359 ft 14 kts 354°
2026-05-08 15:58 49.02068 2.52099 359 ft 13 kts 356°
2026-05-08 15:58 49.02110 2.52144 353 ft 7 kts 75°
2026-05-08 15:59 49.02112 2.52212 353 ft 9 kts 87°
2026-05-08 15:59 49.02128 2.52495 356 ft 57 kts 85°
2026-05-08 15:59 49.02178 2.53434 361 ft 118 kts 85°
2026-05-08 15:59 49.02257 2.54945 355 ft 166 kts 85°
2026-05-08 16:00 49.02366 2.56765 830 ft 170 kts 83°
2026-05-08 16:00 49.02472 2.58538 1546 ft 168 kts 83°
2026-05-08 16:00 49.02571 2.60321 2145 ft 171 kts 83°
2026-05-08 16:00 49.02679 2.62236 2387 ft 192 kts 84°
2026-05-08 16:01 49.02791 2.64369 2649 ft 212 kts 85°
2026-05-08 16:01 49.02900 2.66739 2898 ft 236 kts 85°
2026-05-08 16:01 49.03037 2.69330 3298 ft 254 kts 85°
2026-05-08 16:01 49.03195 2.72046 3986 ft 259 kts 85°
2026-05-08 16:02 49.03341 2.74798 4739 ft 263 kts 85°
2026-05-08 16:02 49.03470 2.77604 5488 ft 267 kts 86°
2026-05-08 16:02 49.03594 2.80441 6256 ft 270 kts 86°
2026-05-08 16:02 49.03717 2.83311 6987 ft 273 kts 86°
2026-05-08 16:03 49.03842 2.86212 7680 ft 276 kts 87°
2026-05-08 16:03 49.03980 2.89151 8385 ft 280 kts 86°
2026-05-08 16:03 49.04127 2.92141 9082 ft 284 kts 86°
2026-05-08 16:03 49.04062 2.95146 9747 ft 286 kts 103°
2026-05-08 16:04 49.03571 2.98117 10291 ft 295 kts 105°
2026-05-08 16:04 49.03031 3.01253 10442 ft 318 kts 106°
2026-05-08 16:04 49.02447 3.04622 10598 ft 339 kts 106°
2026-05-08 16:04 49.01837 3.08145 11061 ft 348 kts 106°
2026-05-08 16:05 49.01220 3.11731 11648 ft 353 kts 106°
2026-05-08 16:05 49.00599 3.15380 12262 ft 357 kts 106°
2026-05-08 16:05 48.99975 3.19056 12844 ft 361 kts 106°
2026-05-08 16:05 48.99343 3.22773 13421 ft 365 kts 106°
2026-05-08 16:06 48.98703 3.26527 13994 ft 368 kts 106°
2026-05-08 16:06 48.98055 3.30318 14547 ft 371 kts 106°
2026-05-08 16:06 48.97400 3.34141 15104 ft 375 kts 106°
2026-05-08 16:06 48.96739 3.37989 15625 ft 378 kts 106°
2026-05-08 16:07 48.96067 3.41880 16126 ft 382 kts 107°
2026-05-08 16:07 48.95388 3.45796 16625 ft 385 kts 107°
2026-05-08 16:07 48.94699 3.49753 17119 ft 388 kts 107°
2026-05-08 16:07 48.94016 3.53738 17604 ft 392 kts 104°
2026-05-08 16:08 48.93637 3.57869 18078 ft 397 kts 96°
2026-05-08 16:08 48.93425 3.62060 18543 ft 400 kts 96°
2026-05-08 16:08 48.93210 3.66297 19019 ft 403 kts 96°
2026-05-08 16:08 48.92989 3.70553 19490 ft 406 kts 96°
2026-05-08 16:09 48.92760 3.74847 19956 ft 408 kts 96°
2026-05-08 16:09 48.92605 3.77704 20255 ft 411 kts 96°
2026-05-08 16:09 48.92289 3.83523 20851 ft 415 kts 96°
2026-05-08 16:09 48.92050 3.87900 21278 ft 417 kts 96°
2026-05-08 16:10 48.91806 3.92309 21684 ft 420 kts 96°
2026-05-08 16:10 48.91559 3.96741 22071 ft 423 kts 96°
2026-05-08 16:10 48.91312 4.01205 22456 ft 425 kts 96°
2026-05-08 16:10 48.91062 4.05695 22847 ft 427 kts 96°
2026-05-08 16:11 48.90807 4.10205 23228 ft 429 kts 97°
2026-05-08 16:11 48.90546 4.14737 23592 ft 431 kts 97°
2026-05-08 16:11 48.90204 4.19266 23935 ft 432 kts 103°
2026-05-08 16:11 48.89436 4.23680 24268 ft 432 kts 112°
2026-05-08 16:12 48.88222 4.27847 24577 ft 432 kts 121°
2026-05-08 16:12 48.86758 4.31844 24874 ft 434 kts 121°
2026-05-08 16:12 48.85282 4.35862 25159 ft 437 kts 121°
2026-05-08 16:12 48.83799 4.39908 25436 ft 439 kts 121°
2026-05-08 16:13 48.82309 4.43968 25702 ft 442 kts 121°
2026-05-08 16:13 48.80808 4.48050 25970 ft 444 kts 121°
2026-05-08 16:13 48.79296 4.52159 26227 ft 447 kts 121°
2026-05-08 16:13 48.77798 4.56233 26484 ft 450 kts 121°
2026-05-08 16:14 48.76269 4.60381 26732 ft 452 kts 121°
2026-05-08 16:14 48.74731 4.64551 26985 ft 454 kts 121°
2026-05-08 16:14 48.73187 4.68735 27228 ft 456 kts 121°
2026-05-08 16:14 48.71631 4.72937 27443 ft 459 kts 121°
2026-05-08 16:15 48.70060 4.77157 27680 ft 461 kts 121°
2026-05-08 16:15 48.68481 4.81385 27917 ft 463 kts 121°
2026-05-08 16:15 48.66893 4.85633 28129 ft 465 kts 121°
2026-05-08 16:15 48.65299 4.89893 28352 ft 466 kts 121°
2026-05-08 16:16 48.63700 4.94169 28568 ft 468 kts 121°
2026-05-08 16:16 48.62096 4.98458 28777 ft 469 kts 121°
2026-05-08 16:16 48.60490 5.02756 28980 ft 471 kts 121°
2026-05-08 16:16 48.58877 5.07064 29176 ft 472 kts 122°
2026-05-08 16:17 48.57253 5.11379 29372 ft 473 kts 122°
2026-05-08 16:17 48.56151 5.14296 29509 ft 474 kts 122°
2026-05-08 16:17 48.53981 5.20026 29765 ft 475 kts 122°
2026-05-08 16:17 48.52338 5.24366 29959 ft 476 kts 122°
2026-05-08 16:18 48.50699 5.28692 30225 ft 475 kts 122°
2026-05-08 16:18 48.49063 5.33005 30479 ft 474 kts 122°
2026-05-08 16:18 48.47427 5.37313 30726 ft 473 kts 122°
2026-05-08 16:18 48.45793 5.41611 30963 ft 473 kts 122°
2026-05-08 16:19 48.44157 5.45907 31190 ft 472 kts 122°
2026-05-08 16:19 48.42522 5.50191 31415 ft 472 kts 122°
2026-05-08 16:19 48.40884 5.54470 31618 ft 472 kts 122°
2026-05-08 16:19 48.39246 5.58746 31829 ft 472 kts 122°
2026-05-08 16:20 48.37605 5.63018 32034 ft 472 kts 122°
2026-05-08 16:20 48.35962 5.67284 32242 ft 471 kts 122°
2026-05-08 16:20 48.34318 5.71543 32450 ft 471 kts 122°
2026-05-08 16:20 48.32675 5.75803 32644 ft 471 kts 122°
2026-05-08 16:21 48.31171 5.80187 32827 ft 474 kts 115°
2026-05-08 16:21 48.30056 5.84848 32996 ft 475 kts 109°
2026-05-08 16:21 48.29040 5.89571 33183 ft 476 kts 109°
2026-05-08 16:21 48.28016 5.94291 33367 ft 475 kts 110°
2026-05-08 16:22 48.26987 5.99013 33539 ft 476 kts 110°
2026-05-08 16:22 48.26304 6.02138 33653 ft 476 kts 110°
2026-05-08 16:22 48.24920 6.08448 33913 ft 475 kts 110°
2026-05-08 16:22 48.23884 6.13154 34096 ft 475 kts 110°
2026-05-08 16:23 48.23196 6.16272 34212 ft 476 kts 110°
2026-05-08 16:23 48.22159 6.20978 34397 ft 476 kts 110°
2026-05-08 16:23 48.21118 6.25688 34592 ft 475 kts 110°
2026-05-08 16:23 48.20075 6.30389 34756 ft 475 kts 110°
2026-05-08 16:24 48.19032 6.35086 34941 ft 475 kts 110°
2026-05-08 16:24 48.17986 6.39789 35018 ft 475 kts 110°
2026-05-08 16:24 48.15891 6.49160 35018 ft 474 kts 110°
2026-05-08 16:25 48.13791 6.58514 35014 ft 474 kts 110°
2026-05-08 16:25 48.11691 6.67846 35015 ft 472 kts 110°
2026-05-08 16:26 48.09593 6.77154 35007 ft 472 kts 110°
2026-05-08 16:26 48.07490 6.86440 35007 ft 471 kts 110°
2026-05-08 16:27 48.05371 6.95704 35010 ft 471 kts 111°
2026-05-08 16:27 48.03246 7.04963 35010 ft 470 kts 111°
2026-05-08 16:28 48.01128 7.14197 35009 ft 470 kts 111°
2026-05-08 16:28 47.98992 7.23411 35010 ft 469 kts 111°
2026-05-08 16:29 47.96853 7.32624 34984 ft 470 kts 111°
2026-05-08 16:29 47.94704 7.41838 34986 ft 470 kts 111°
2026-05-08 16:30 47.92546 7.51043 34994 ft 470 kts 111°
2026-05-08 16:30 47.90391 7.60171 35000 ft 470 kts 112°
2026-05-08 16:31 47.88126 7.69295 35005 ft 469 kts 113°
2026-05-08 16:31 47.85792 7.78365 35006 ft 469 kts 113°
2026-05-08 16:32 47.83465 7.87424 35007 ft 468 kts 113°
2026-05-08 16:32 47.81158 7.96474 35009 ft 468 kts 113°
2026-05-08 16:33 47.78841 8.05512 35015 ft 468 kts 113°
2026-05-08 16:33 47.76512 8.14546 35008 ft 468 kts 113°
2026-05-08 16:34 47.74179 8.23571 35016 ft 468 kts 114°
2026-05-08 16:34 47.71846 8.32592 35012 ft 468 kts 114°
2026-05-08 16:35 47.69503 8.41594 35016 ft 468 kts 114°
2026-05-08 16:35 47.67250 8.50652 35010 ft 469 kts 111°
2026-05-08 16:36 47.65223 8.59844 35011 ft 469 kts 110°
2026-05-08 16:36 47.63220 8.69047 35010 ft 469 kts 111°
2026-05-08 16:37 47.61156 8.78200 35007 ft 469 kts 111°
2026-05-08 16:37 47.59050 8.87335 35012 ft 468 kts 112°
2026-05-08 16:38 47.56939 8.96461 35008 ft 468 kts 112°
2026-05-08 16:38 47.54830 9.05589 35003 ft 468 kts 112°
2026-05-08 16:39 47.52719 9.14703 35004 ft 468 kts 112°
2026-05-08 16:39 47.50596 9.23809 35008 ft 468 kts 112°
2026-05-08 16:40 47.48471 9.32903 35014 ft 468 kts 112°
2026-05-08 16:40 47.46335 9.41977 35014 ft 467 kts 113°
2026-05-08 16:41 47.44198 9.51047 35008 ft 467 kts 113°
2026-05-08 16:42 47.41008 9.64643 35010 ft 468 kts 110°
2026-05-08 16:42 47.39632 9.74088 35012 ft 471 kts 105°
2026-05-08 16:43 47.38323 9.83553 35010 ft 471 kts 105°
2026-05-08 16:43 47.36991 9.93012 35017 ft 471 kts 105°
2026-05-08 16:44 47.35658 10.02449 35014 ft 470 kts 105°
2026-05-08 16:44 47.34342 10.11821 35022 ft 470 kts 105°
2026-05-08 16:45 47.33009 10.21240 35026 ft 469 kts 106°
2026-05-08 16:45 47.31662 10.30649 35030 ft 469 kts 106°
2026-05-08 16:46 47.30304 10.40055 35047 ft 470 kts 106°
2026-05-08 16:46 47.28941 10.49466 35052 ft 470 kts 106°
2026-05-08 16:47 47.27569 10.58886 35053 ft 470 kts 106°
2026-05-08 16:47 47.26189 10.68301 35054 ft 470 kts 106°
2026-05-08 16:48 47.24805 10.77702 35055 ft 470 kts 106°
2026-05-08 16:48 47.23415 10.87086 35043 ft 470 kts 107°
2026-05-08 16:49 47.22016 10.96483 35036 ft 470 kts 107°
2026-05-08 16:49 47.20610 11.05879 35034 ft 471 kts 107°
2026-05-08 16:50 47.19187 11.15274 35028 ft 471 kts 107°
2026-05-08 16:50 47.17756 11.24651 35024 ft 471 kts 107°
2026-05-08 16:51 47.16320 11.34038 35022 ft 471 kts 107°
2026-05-08 16:51 47.14871 11.43427 35021 ft 471 kts 107°
2026-05-08 16:52 47.13419 11.52804 35021 ft 471 kts 107°
2026-05-08 16:52 47.11969 11.62181 35023 ft 471 kts 107°
2026-05-08 16:53 47.09773 11.76225 35020 ft 470 kts 108°
2026-05-08 16:53 47.08242 11.85550 35023 ft 467 kts 112°
2026-05-08 16:54 47.05688 11.94113 35033 ft 460 kts 121°
2026-05-08 16:54 47.02872 12.02543 35045 ft 460 kts 121°
2026-05-08 16:55 47.00062 12.10973 35046 ft 461 kts 121°
2026-05-08 16:55 46.97223 12.19390 35053 ft 461 kts 121°
2026-05-08 16:56 46.94380 12.27804 35062 ft 461 kts 121°
2026-05-08 16:56 46.91532 12.36210 35058 ft 461 kts 121°
2026-05-08 16:57 46.88681 12.44600 35060 ft 461 kts 121°
2026-05-08 16:57 46.85826 12.52982 35064 ft 461 kts 122°
2026-05-08 16:58 46.82966 12.61356 35065 ft 461 kts 121°
2026-05-08 16:58 46.80099 12.69739 35071 ft 461 kts 122°
2026-05-08 16:59 46.77225 12.78091 35071 ft 460 kts 122°
2026-05-08 16:59 46.74347 12.86433 35062 ft 460 kts 122°
2026-05-08 17:00 46.71464 12.94760 35060 ft 460 kts 122°
2026-05-08 17:00 46.68575 13.03079 35056 ft 461 kts 122°
2026-05-08 17:01 46.65676 13.11390 35054 ft 460 kts 122°
2026-05-08 17:01 46.62771 13.19693 35049 ft 460 kts 122°
2026-05-08 17:02 46.59863 13.27981 35041 ft 460 kts 122°
2026-05-08 17:02 46.56903 13.36208 35037 ft 456 kts 127°
2026-05-08 17:03 46.52975 13.43267 35036 ft 447 kts 138°
2026-05-08 17:03 46.48742 13.49883 35033 ft 447 kts 138°
2026-05-08 17:04 46.44500 13.56491 35033 ft 447 kts 138°
2026-05-08 17:04 46.40265 13.63089 35029 ft 447 kts 138°
2026-05-08 17:05 46.36034 13.69674 35030 ft 447 kts 138°
2026-05-08 17:05 46.31793 13.76242 35026 ft 446 kts 138°
2026-05-08 17:06 46.27556 13.82796 35029 ft 446 kts 138°
2026-05-08 17:06 46.23323 13.89331 35028 ft 445 kts 138°
2026-05-08 17:07 46.19088 13.95850 35026 ft 445 kts 138°
2026-05-08 17:07 46.14853 14.02348 35030 ft 444 kts 138°
2026-05-08 17:08 46.11331 14.07737 35028 ft 444 kts 138°
2026-05-08 17:08 46.07096 14.14204 35024 ft 444 kts 138°
2026-05-08 17:09 46.02859 14.20663 35022 ft 444 kts 139°
2026-05-08 17:09 45.98619 14.27106 35021 ft 444 kts 139°
2026-05-08 17:10 45.94384 14.33543 35014 ft 443 kts 139°
2026-05-08 17:10 45.90141 14.39976 35016 ft 443 kts 139°
2026-05-08 17:11 45.85888 14.46394 35012 ft 443 kts 139°
2026-05-08 17:11 45.81634 14.52796 35001 ft 444 kts 139°
2026-05-08 17:12 45.77374 14.59200 35011 ft 444 kts 139°
2026-05-08 17:12 45.73118 14.65587 35014 ft 443 kts 139°
2026-05-08 17:13 45.68852 14.71960 35011 ft 443 kts 139°
2026-05-08 17:13 45.64588 14.78321 35015 ft 443 kts 139°
2026-05-08 17:14 45.60312 14.84683 35016 ft 444 kts 139°
2026-05-08 17:14 45.56036 14.91043 35019 ft 444 kts 139°
2026-05-08 17:15 45.51747 14.97395 35019 ft 444 kts 139°
2026-05-08 17:15 45.47412 15.03651 35014 ft 443 kts 141°
2026-05-08 17:16 45.42917 15.09633 35020 ft 442 kts 142°
2026-05-08 17:16 45.38372 15.15519 35025 ft 442 kts 142°
2026-05-08 17:17 45.33849 15.21431 35023 ft 442 kts 142°
2026-05-08 17:17 45.29346 15.27384 35023 ft 442 kts 142°
2026-05-08 17:18 45.24844 15.33331 35023 ft 442 kts 142°
2026-05-08 17:18 45.20332 15.39261 35026 ft 442 kts 142°
2026-05-08 17:19 45.15822 15.45181 35026 ft 442 kts 142°
2026-05-08 17:19 45.11302 15.51086 35025 ft 442 kts 142°
2026-05-08 17:20 45.06778 15.56983 35027 ft 442 kts 142°
2026-05-08 17:20 45.02254 15.62868 35031 ft 442 kts 142°
2026-05-08 17:21 44.97724 15.68743 35030 ft 442 kts 142°
2026-05-08 17:21 44.93196 15.74606 35029 ft 442 kts 142°
2026-05-08 17:22 44.88673 15.80471 35028 ft 442 kts 142°
2026-05-08 17:22 44.84142 15.86322 35030 ft 442 kts 142°
2026-05-08 17:23 44.79630 15.92117 35029 ft 442 kts 142°
2026-05-08 17:23 44.75083 15.97943 35030 ft 442 kts 141°
2026-05-08 17:24 44.70538 16.03770 35032 ft 442 kts 141°
2026-05-08 17:24 44.65994 16.09586 35037 ft 442 kts 142°
2026-05-08 17:25 44.61439 16.15393 35037 ft 442 kts 141°
2026-05-08 17:25 44.56887 16.21192 35033 ft 442 kts 141°
2026-05-08 17:26 44.52333 16.26979 35032 ft 442 kts 141°
2026-05-08 17:26 44.47776 16.32755 35035 ft 442 kts 142°
2026-05-08 17:27 44.43210 16.38522 35028 ft 442 kts 141°
2026-05-08 17:27 44.38646 16.44274 35024 ft 442 kts 141°
2026-05-08 17:28 44.34082 16.50019 35022 ft 442 kts 141°
2026-05-08 17:28 44.29506 16.55756 35022 ft 441 kts 142°
2026-05-08 17:29 44.24937 16.61475 35019 ft 441 kts 142°
2026-05-08 17:29 44.20363 16.67184 35018 ft 441 kts 142°
2026-05-08 17:30 44.15794 16.72893 35016 ft 441 kts 142°
2026-05-08 17:30 44.11227 16.78606 35010 ft 442 kts 142°
2026-05-08 17:31 44.06645 16.84296 35012 ft 442 kts 142°
2026-05-08 17:31 44.02055 16.89980 35020 ft 442 kts 142°
2026-05-08 17:32 43.97461 16.95663 35016 ft 443 kts 141°
2026-05-08 17:32 43.92856 17.01341 35014 ft 443 kts 141°
2026-05-08 17:33 43.88240 17.07025 35016 ft 444 kts 141°
2026-05-08 17:33 43.83619 17.12716 35017 ft 444 kts 141°
2026-05-08 17:34 43.78993 17.18387 35014 ft 444 kts 142°
2026-05-08 17:34 43.74367 17.24048 35017 ft 445 kts 141°
2026-05-08 17:35 43.69755 17.29675 35015 ft 445 kts 141°
2026-05-08 17:35 43.65109 17.35337 35016 ft 446 kts 142°
2026-05-08 17:36 43.60457 17.40988 35017 ft 445 kts 142°
2026-05-08 17:36 43.55805 17.46637 35017 ft 446 kts 141°
2026-05-08 17:37 43.51154 17.52281 35012 ft 445 kts 142°
2026-05-08 17:37 43.46502 17.57909 35019 ft 445 kts 142°
2026-05-08 17:38 43.41838 17.63519 35016 ft 445 kts 142°
2026-05-08 17:38 43.37177 17.69116 35013 ft 445 kts 142°
2026-05-08 17:39 43.32485 17.74758 34999 ft 445 kts 142°
2026-05-08 17:39 43.27850 17.80315 34995 ft 446 kts 142°
2026-05-08 17:40 43.23174 17.85898 34997 ft 446 kts 142°
2026-05-08 17:40 43.18495 17.91472 34989 ft 446 kts 142°
2026-05-08 17:41 43.13819 17.97039 34995 ft 446 kts 142°
2026-05-08 17:41 43.09103 18.02650 34987 ft 446 kts 141°
2026-05-08 17:42 43.04445 18.08176 34994 ft 446 kts 141°
2026-05-08 17:42 42.99754 18.13722 35001 ft 446 kts 142°
2026-05-08 17:43 42.95057 18.19258 34993 ft 446 kts 141°
2026-05-08 17:43 42.90363 18.24782 35003 ft 445 kts 141°
2026-05-08 17:44 42.85670 18.30303 34998 ft 446 kts 142°
2026-05-08 17:44 42.80962 18.35819 34998 ft 447 kts 142°
2026-05-08 17:45 42.76253 18.41336 34991 ft 447 kts 142°
2026-05-08 17:45 42.71539 18.46845 34991 ft 447 kts 141°
2026-05-08 17:46 42.66819 18.52348 34985 ft 447 kts 142°
2026-05-08 17:46 42.62092 18.57848 35000 ft 447 kts 142°
2026-05-08 17:47 42.57369 18.63338 34986 ft 447 kts 142°
2026-05-08 17:47 42.53438 18.67893 34982 ft 448 kts 142°
2026-05-08 17:48 42.47900 18.74285 34990 ft 447 kts 142°
2026-05-08 17:48 42.43165 18.79744 34996 ft 447 kts 142°
2026-05-08 17:49 42.38432 18.85201 35001 ft 447 kts 142°
2026-05-08 17:49 42.33705 18.90639 34997 ft 446 kts 142°
2026-05-08 17:50 42.28980 18.96065 34992 ft 446 kts 142°
2026-05-08 17:50 42.24249 19.01466 34989 ft 445 kts 142°
2026-05-08 17:51 42.19520 19.06860 35001 ft 445 kts 142°
2026-05-08 17:51 42.14791 19.12247 34996 ft 445 kts 142°
2026-05-08 17:52 42.10866 19.16711 34986 ft 444 kts 142°
2026-05-08 17:53 42.03788 19.24760 35004 ft 444 kts 142°
2026-05-08 17:53 41.99068 19.30088 35007 ft 443 kts 142°
2026-05-08 17:54 41.94349 19.35414 34984 ft 443 kts 142°
2026-05-08 17:54 41.89610 19.40754 34986 ft 445 kts 142°
2026-05-08 17:55 41.84871 19.46097 34992 ft 445 kts 142°
2026-05-08 17:55 41.80121 19.51431 35005 ft 445 kts 142°
2026-05-08 17:56 41.75369 19.56752 35003 ft 446 kts 142°
2026-05-08 17:56 41.70612 19.62072 35009 ft 445 kts 142°
2026-05-08 17:57 41.65859 19.67382 35015 ft 445 kts 142°
2026-05-08 17:57 41.61103 19.72680 35015 ft 445 kts 142°
2026-05-08 17:58 41.56346 19.77971 35020 ft 445 kts 142°
2026-05-08 17:58 41.51587 19.83248 35020 ft 445 kts 142°
2026-05-08 17:59 41.46813 19.88523 35026 ft 446 kts 143°
2026-05-08 17:59 41.42076 19.93766 35027 ft 446 kts 142°
2026-05-08 18:00 41.37289 19.99057 35028 ft 447 kts 143°
2026-05-08 18:00 41.30091 20.06961 35038 ft 448 kts 143°
2026-05-08 18:01 41.25287 20.12234 35038 ft 448 kts 143°
2026-05-08 18:01 41.20477 20.17507 35034 ft 449 kts 143°
2026-05-08 18:02 41.15654 20.22783 35033 ft 449 kts 143°
2026-05-08 18:02 41.10821 20.28054 35032 ft 450 kts 143°
2026-05-08 18:03 41.05973 20.33338 35037 ft 452 kts 144°
2026-05-08 18:03 41.01109 20.38624 35042 ft 453 kts 144°
2026-05-08 18:04 40.96233 20.43912 35043 ft 454 kts 144°
2026-05-08 18:04 40.91344 20.49202 35047 ft 455 kts 144°
2026-05-08 18:05 40.86438 20.54503 35053 ft 456 kts 144°
2026-05-08 18:05 40.81517 20.59806 35057 ft 457 kts 144°
2026-05-08 18:06 40.76586 20.65114 35053 ft 457 kts 144°
2026-05-08 18:06 40.71653 20.70415 35055 ft 458 kts 144°
2026-05-08 18:07 40.66714 20.75719 35054 ft 458 kts 145°
2026-05-08 18:07 40.61763 20.81014 35056 ft 459 kts 145°
2026-05-08 18:08 40.56805 20.86301 35056 ft 459 kts 145°
2026-05-08 18:08 40.51846 20.91587 35063 ft 459 kts 145°
2026-05-08 18:09 40.46889 20.96878 35066 ft 460 kts 144°
2026-05-08 18:09 40.42048 21.02383 35066 ft 461 kts 142°
2026-05-08 18:10 40.37280 21.08011 35071 ft 461 kts 142°
2026-05-08 18:10 40.32484 21.13608 35061 ft 461 kts 143°
2026-05-08 18:11 40.27657 21.19144 35067 ft 462 kts 143°
2026-05-08 18:11 40.22816 21.24678 35076 ft 462 kts 143°
2026-05-08 18:12 40.17976 21.30214 35079 ft 462 kts 144°
2026-05-08 18:12 40.13129 21.35742 35076 ft 462 kts 144°
2026-05-08 18:13 40.08281 21.41249 35080 ft 463 kts 143°
2026-05-08 18:13 40.03408 21.46786 35080 ft 468 kts 142°
2026-05-08 18:14 39.98478 21.52388 35085 ft 477 kts 142°
2026-05-08 18:14 39.93449 21.58083 35084 ft 480 kts 142°
2026-05-08 18:15 39.88398 21.63786 35078 ft 480 kts 142°
2026-05-08 18:15 39.83348 21.69476 35082 ft 480 kts 142°
2026-05-08 18:16 39.78297 21.75158 35083 ft 480 kts 142°
2026-05-08 18:16 39.73239 21.80843 35087 ft 480 kts 142°
2026-05-08 18:17 39.68176 21.86506 35083 ft 480 kts 142°
2026-05-08 18:17 39.63117 21.92156 35081 ft 480 kts 142°
2026-05-08 18:18 39.58054 21.97810 35076 ft 480 kts 142°
2026-05-08 18:18 39.52993 22.03457 35072 ft 480 kts 142°
2026-05-08 18:19 39.47934 22.09090 35068 ft 480 kts 143°
2026-05-08 18:19 39.42867 22.14705 35065 ft 479 kts 143°
2026-05-08 18:20 39.37802 22.20318 35060 ft 479 kts 143°
2026-05-08 18:20 39.32731 22.25920 35056 ft 479 kts 143°
2026-05-08 18:21 39.27664 22.31511 35057 ft 480 kts 143°
2026-05-08 18:21 39.22575 22.37108 35056 ft 481 kts 144°
2026-05-08 18:22 39.17473 22.42704 35051 ft 482 kts 144°
2026-05-08 18:22 39.12369 22.48307 35049 ft 482 kts 144°
2026-05-08 18:23 39.07260 22.53907 35045 ft 482 kts 144°
2026-05-08 18:23 39.02145 22.59498 35046 ft 483 kts 144°
2026-05-08 18:24 38.97021 22.65077 35045 ft 483 kts 144°
2026-05-08 18:24 38.91892 22.70654 35044 ft 483 kts 144°
2026-05-08 18:25 38.86752 22.76226 35043 ft 483 kts 145°
2026-05-08 18:25 38.81617 22.81782 35042 ft 483 kts 145°
2026-05-08 18:26 38.76507 22.87313 35041 ft 484 kts 145°
2026-05-08 18:26 38.71357 22.92878 35036 ft 485 kts 145°
2026-05-08 18:27 38.67037 22.97532 34515 ft 484 kts 145°
2026-05-08 18:27 38.63618 23.01212 33493 ft 486 kts 145°
2026-05-08 18:27 38.61032 23.03994 32853 ft 484 kts 145°
2026-05-08 18:28 38.58473 23.06749 32304 ft 479 kts 145°
2026-05-08 18:28 38.55931 23.09479 31762 ft 475 kts 146°
2026-05-08 18:28 38.53406 23.12181 31223 ft 472 kts 146°
2026-05-08 18:28 38.50899 23.14856 30703 ft 468 kts 146°
2026-05-08 18:29 38.48412 23.17510 30186 ft 464 kts 146°
2026-05-08 18:29 38.45953 23.20141 29668 ft 460 kts 146°
2026-05-08 18:29 38.43510 23.22753 29149 ft 456 kts 146°
2026-05-08 18:29 38.41083 23.25340 28631 ft 453 kts 146°
2026-05-08 18:30 38.38673 23.27907 28119 ft 450 kts 146°
2026-05-08 18:30 38.36285 23.30452 27603 ft 446 kts 146°
2026-05-08 18:30 38.33910 23.32980 27096 ft 443 kts 146°
2026-05-08 18:30 38.31553 23.35486 26615 ft 440 kts 146°
2026-05-08 18:31 38.29215 23.37970 26132 ft 436 kts 146°
2026-05-08 18:31 38.26912 23.40473 25628 ft 434 kts 145°
2026-05-08 18:31 38.24635 23.42966 25153 ft 431 kts 145°
2026-05-08 18:31 38.22368 23.45444 24684 ft 428 kts 145°
2026-05-08 18:32 38.20118 23.47901 24196 ft 425 kts 145°
2026-05-08 18:32 38.17901 23.50369 23727 ft 424 kts 140°
2026-05-08 18:32 38.16091 23.53345 23291 ft 428 kts 127°
2026-05-08 18:32 38.14522 23.56559 22827 ft 427 kts 125°
2026-05-08 18:33 38.12982 23.59763 22417 ft 423 kts 125°
2026-05-08 18:33 38.11455 23.62943 21980 ft 420 kts 125°
2026-05-08 18:33 38.09944 23.66086 21474 ft 414 kts 125°
2026-05-08 18:33 38.08470 23.69148 20714 ft 410 kts 125°
2026-05-08 18:34 38.06972 23.72251 19978 ft 404 kts 125°
2026-05-08 18:34 38.05514 23.75266 19267 ft 398 kts 125°
2026-05-08 18:34 38.04072 23.78241 18569 ft 393 kts 125°
2026-05-08 18:34 38.02652 23.81165 17876 ft 387 kts 125°
2026-05-08 18:35 38.01246 23.84054 17184 ft 382 kts 125°
2026-05-08 18:35 37.99857 23.86899 16468 ft 378 kts 125°
2026-05-08 18:35 37.98475 23.89715 15746 ft 374 kts 125°
2026-05-08 18:35 37.97102 23.92493 15036 ft 371 kts 125°
2026-05-08 18:36 37.95917 23.95331 14337 ft 371 kts 110°
2026-05-08 18:36 37.95534 23.98555 13922 ft 371 kts 89°
2026-05-08 18:36 37.95647 24.01810 13465 ft 369 kts 85°
2026-05-08 18:36 37.95754 24.03995 13165 ft 367 kts 85°
2026-05-08 18:37 37.95965 24.08241 12612 ft 362 kts 85°
2026-05-08 18:37 37.96120 24.11419 12191 ft 361 kts 85°
2026-05-08 18:37 37.96271 24.14574 11760 ft 358 kts 85°
2026-05-08 18:37 37.96419 24.17713 11336 ft 356 kts 85°
2026-05-08 18:38 37.96528 24.19824 11131 ft 354 kts 85°
2026-05-08 18:38 37.96707 24.22938 11071 ft 355 kts 85°
2026-05-08 18:38 37.96939 24.26056 11078 ft 355 kts 78°
2026-05-08 18:38 37.97683 24.29028 10950 ft 355 kts 66°
2026-05-08 18:39 37.98616 24.31908 10697 ft 352 kts 65°
2026-05-08 18:39 37.99569 24.34757 10449 ft 349 kts 65°
2026-05-08 18:39 38.00517 24.37548 10196 ft 341 kts 65°
2026-05-08 18:39 38.01454 24.40248 10079 ft 328 kts 65°
2026-05-08 18:40 38.02382 24.42875 10091 ft 326 kts 65°
2026-05-08 18:40 38.03307 24.45493 10093 ft 325 kts 65°
2026-05-08 18:40 38.04213 24.48068 10090 ft 324 kts 65°
2026-05-08 18:40 38.05248 24.50592 10091 ft 322 kts 51°
2026-05-08 18:41 38.06884 24.52466 10094 ft 315 kts 24°
2026-05-08 18:41 38.08927 24.53303 10088 ft 305 kts 359°
2026-05-08 18:41 38.10975 24.52985 10091 ft 292 kts 333°
2026-05-08 18:41 38.12635 24.51634 10084 ft 280 kts 309°
2026-05-08 18:42 38.13964 24.49819 10083 ft 283 kts 306°
2026-05-08 18:42 38.15253 24.47943 10079 ft 281 kts 306°
2026-05-08 18:42 38.16522 24.46073 10079 ft 279 kts 305°
2026-05-08 18:42 38.17787 24.44201 10086 ft 279 kts 305°
2026-05-08 18:43 38.19049 24.42331 10079 ft 279 kts 305°
2026-05-08 18:43 38.20308 24.40462 9972 ft 276 kts 306°
2026-05-08 18:43 38.21553 24.38608 9568 ft 276 kts 304°
2026-05-08 18:43 38.22445 24.36525 9160 ft 265 kts 279°
2026-05-08 18:44 38.22488 24.34242 8716 ft 258 kts 258°
2026-05-08 18:44 38.22160 24.32002 8284 ft 258 kts 256°
2026-05-08 18:44 38.21802 24.29775 7870 ft 257 kts 255°
2026-05-08 18:44 38.21446 24.27553 7466 ft 256 kts 255°
2026-05-08 18:45 38.21092 24.25343 7044 ft 254 kts 255°
2026-05-08 18:45 38.20739 24.23142 6619 ft 254 kts 255°
2026-05-08 18:45 38.20398 24.20952 6247 ft 252 kts 255°
2026-05-08 18:45 38.20063 24.18770 5849 ft 251 kts 255°
2026-05-08 18:46 38.19728 24.16597 5412 ft 250 kts 255°
2026-05-08 18:46 38.19397 24.14424 5045 ft 249 kts 255°
2026-05-08 18:46 38.18824 24.12376 4880 ft 245 kts 234°
2026-05-08 18:46 38.17579 24.10976 4468 ft 241 kts 203°
2026-05-08 18:47 38.15928 24.10556 4063 ft 243 kts 189°
2026-05-08 18:47 38.14235 24.10293 3995 ft 246 kts 189°
2026-05-08 18:47 38.12527 24.10027 4001 ft 248 kts 189°
2026-05-08 18:47 38.10856 24.09529 4006 ft 246 kts 205°
2026-05-08 18:48 38.09406 24.08405 3832 ft 242 kts 216°
2026-05-08 18:48 38.08110 24.07137 3546 ft 228 kts 217°
2026-05-08 18:48 38.06897 24.05954 3263 ft 213 kts 217°
2026-05-08 18:48 38.05746 24.04849 2990 ft 202 kts 216°
2026-05-08 18:49 38.04653 24.03805 2735 ft 191 kts 216°
2026-05-08 18:49 38.03622 24.02822 2506 ft 180 kts 216°
2026-05-08 18:49 38.02660 24.01903 2254 ft 167 kts 217°
2026-05-08 18:49 38.01768 24.01051 2025 ft 154 kts 217°
2026-05-08 18:50 38.00947 24.00268 1857 ft 144 kts 218°
2026-05-08 18:50 38.00163 23.99519 1649 ft 139 kts 218°
2026-05-08 18:50 37.99394 23.98785 1455 ft 138 kts 218°
2026-05-08 18:50 37.98621 23.98044 1279 ft 139 kts 217°
2026-05-08 18:51 37.97846 23.97309 1104 ft 140 kts 218°
2026-05-08 18:51 37.97073 23.96570 917 ft 139 kts 218°
2026-05-08 18:51 37.96301 23.95837 750 ft 140 kts 217°
2026-05-08 18:51 37.95524 23.95103 534 ft 138 kts 217°
2026-05-08 18:52 37.94756 23.94366 359 ft 138 kts 217°
2026-05-08 18:52 37.94021 23.93670 296 ft 118 kts 216°
2026-05-08 18:52 37.93501 23.93172 290 ft 69 kts 217°
2026-05-08 18:52 37.93203 23.92896 292 ft 37 kts 214°
2026-05-08 18:53 37.92999 23.92827 294 ft 19 kts 185°
2026-05-08 18:53 37.92932 23.92850 299 ft 7 kts 125°
2026-05-08 18:53 37.92928 23.92899 299 ft 7 kts 78°
2026-05-08 18:53 37.92984 23.92963 298 ft 15 kts 37°
2026-05-08 18:54 37.93063 23.93038 302 ft 13 kts 36°
2026-05-08 18:54 37.93132 23.93102 300 ft 12 kts 36°
2026-05-08 18:54 37.93192 23.93160 298 ft 10 kts 37°
2026-05-08 18:54 37.93278 23.93243 299 ft 21 kts 37°
2026-05-08 18:55 37.93532 23.93484 300 ft 24 kts 37°
2026-05-08 18:55 37.93672 23.93615 299 ft 26 kts 36°
2026-05-08 18:55 37.93818 23.93755 301 ft 27 kts 37°
2026-05-08 18:56 37.93969 23.93898 300 ft 28 kts 38°
2026-05-08 18:56 37.94119 23.94040 303 ft 26 kts 37°
2026-05-08 18:56 37.94263 23.94179 303 ft 27 kts 37°
2026-05-08 18:56 37.94416 23.94325 302 ft 28 kts 37°
2026-05-08 18:57 37.94562 23.94458 301 ft 23 kts 36°
2026-05-08 18:57 37.94638 23.94530 302 ft 15 kts 36°
2026-05-08 18:57 37.94666 23.94655 302 ft 12 kts 126°
2026-05-08 18:57 37.94620 23.94733 301 ft 11 kts 127°
2026-05-08 18:58 37.94546 23.94857 301 ft 22 kts 127°
2026-05-08 18:58 37.94448 23.95018 301 ft 24 kts 128°
2026-05-08 18:58 37.94351 23.95184 303 ft 21 kts 127°
2026-05-08 18:58 37.94271 23.95324 301 ft 19 kts 126°
2026-05-08 18:59 37.94189 23.95461 303 ft 17 kts 126°
2026-05-08 18:59 37.94129 23.95553 299 ft 13 kts 150°
2026-05-08 18:59 37.94055 23.95523 301 ft 12 kts 215°
2026-05-08 18:59 37.93990 23.95461 299 ft 12 kts 217°
2026-05-08 19:00 37.93927 23.95400 299 ft 11 kts 217°
2026-05-08 19:00 37.93867 23.95343 299 ft 11 kts 217°
2026-05-08 19:00 37.93811 23.95289 299 ft 10 kts 217°
2026-05-08 19:00 37.93759 23.95239 301 ft 9 kts 217°
2026-05-08 19:01 37.93706 23.95183 300 ft 10 kts 239°
2026-05-08 19:01 37.93720 23.95114 300 ft 8 kts 320°
2026-05-08 19:01 37.93763 23.95118 300 ft 6 kts 28°
2026-05-08 19:01 37.93805 23.95156 302 ft 8 kts 37°
2026-05-08 19:02 37.93846 23.95195 303 ft 7 kts 36°
2026-05-08 19:02 37.93878 23.95181 301 ft 5 kts 301°
2026-05-08 19:02 37.93895 23.95149 300 ft 4 kts 304°
2026-05-08 19:02 37.93908 23.95127 302 ft 3 kts 307°
2026-05-08 19:03 37.93913 23.95120 301 ft 0 kts 307°
2026-05-08 19:03 37.93913 23.95119 303 ft 0 kts 307°